Location: Banios
(43.0451°N, 0.2335°E)
Time: 11:13:16
(UTC+00:00)

Envisat - Pass Details

Date: 16 December 2021
Orbit: 764 x 766 km, 98.2° (Epoch: 28 January)

Event Time Altitude Azimuth Distance (km) Brightness Sun altitude
Rises 17:42:20 0° 222° (SW) 3,221 7.4 -13.5°
Reaches altitude 10° 17:46:53 10° 261° (W) 2,304 6.9 -14.3°
Maximum altitude 17:47:57 11° 273° (W) 2,263 6.6 -14.5°
Drops below altitude 10° 17:49:01 10° 285° (WNW) 2,307 6.4 -14.7°
Sets 17:53:37 0° 324° (NW) 3,241 6.5 -15.5°
